Location: Mentone
(34.5413°N, 85.5351°W)
Time: 15:42:57
(UTC-05:00)

Vanguard 2 Rocket - Visible Passes

Search period start: 04 July 2015 00:00
Search period end: 14 July 2015 00:00
Orbit: 555 x 3331 km, 32.9° (Epoch: 03 July)

Date Brightness Start Highest point End Pass type
(mag) Time Alt. Az. Time Alt. Az. Time Alt. Az.
04 Jul 9.4 01:22:39 10° W 01:41:00 85° S 02:00:57 10° E visible
04 Jul 9.5 03:39:58 10° W 04:00:09 69° SSW 04:16:48 10° SE visible
04 Jul 9.0 22:08:41 10° SW 22:21:13 64° SSE 22:40:35 10° E visible
05 Jul 9.3 00:22:39 10° W 00:39:11 85° S 00:59:52 10° E visible
05 Jul 9.5 02:38:59 10° W 02:58:36 77° SSW 03:17:04 10° ESE visible
05 Jul 9.6 04:57:29 10° W 05:16:19 46° SW 05:30:35 10° SSE visible
05 Jul 9.0 21:10:24 10° SW 21:21:03 51° SSE 21:38:21 10° ENE visible
05 Jul 9.2 23:23:07 10° WSW 23:37:41 81° S 23:58:19 10° E visible
06 Jul 9.4 01:38:29 10° W 01:56:49 82° S 02:16:41 10° ESE visible
06 Jul 9.5 03:55:50 10° WNW 04:15:28 58° SSW 04:31:50 10° SE visible
06 Jul 9.0 20:12:42 10° SSW 20:21:30 37° SE 20:35:50 10° E visible
06 Jul 9.0 22:24:05 10° WSW 22:36:40 74° SSE 22:56:24 10° E visible
07 Jul 9.3 00:38:27 10° W 00:55:01 85° S 01:15:42 10° E visible
07 Jul 9.5 02:54:48 10° W 03:14:08 68° SSW 03:32:24 10° SE visible
07 Jul 8.8 21:25:31 10° SW 21:36:15 63° SSE 21:54:14 10° E visible
07 Jul 9.2 23:38:52 10° W 23:53:28 85° S 00:14:09 10° E visible
08 Jul 9.4 01:54:18 10° W 02:12:30 76° SSW 02:32:14 10° ESE visible
08 Jul 9.7 04:11:53 10° W 04:30:34 46° SW 04:46:23 10° SSE visible
08 Jul 8.8 20:27:27 10° SW 20:36:29 50° SSE 20:51:58 10° E visible
08 Jul 9.0 22:39:42 10° WSW 22:52:20 81° S 23:12:13 10° E visible
09 Jul 9.3 00:54:16 10° W 01:10:49 81° S 01:31:24 10° ESE visible
09 Jul 9.5 03:10:41 10° W 03:29:27 57° SSW 03:47:17 10° SE visible
09 Jul 8.8 21:40:57 10° WSW 21:51:44 74° SSE 22:10:03 10° E visible
09 Jul 9.2 23:54:40 10° W 00:09:17 84° S 00:29:59 10° E visible
10 Jul 9.4 02:10:07 10° W 02:28:01 66° SSW 02:47:27 10° SE visible
10 Jul 9.9 04:28:23 10° W 04:45:33 35° SW 05:00:13 10° SSE visible
10 Jul 8.6 20:42:38 10° SW 20:51:44 63° SSE 21:07:50 10° E visible
10 Jul 9.0 22:55:28 10° W 23:08:07 85° S 23:28:03 10° E visible
11 Jul 9.3 01:10:05 10° W 01:26:30 74° SSW 01:46:53 10° ESE visible
11 Jul 9.7 03:26:47 10° W 03:44:38 45° SSW 04:01:40 10° SSE visible
11 Jul 8.8 21:56:38 10° WSW 22:07:25 82° S 22:25:53 10° E visible
12 Jul 9.2 00:10:29 10° W 00:25:04 80° S 00:45:38 10° ESE visible
12 Jul 9.5 02:26:02 10° W 02:43:25 55° SSW 03:02:14 10° SE visible
12 Jul 10.1 04:45:46 10° W 05:00:34 24° SW 05:13:03 10° S visible
12 Jul 8.5 20:58:07 10° WSW 21:07:15 74° SSE 21:23:39 10° E visible
12 Jul 9.0 23:11:16 10° W 23:23:56 84° S 23:43:51 10° E visible
13 Jul 9.3 01:25:55 10° W 01:42:03 64° SSW 02:02:00 10° SE visible
13 Jul 9.9 03:43:21 10° W 03:59:45 34° SW 04:15:18 10° SSE visible
13 Jul 8.8 22:12:23 10° W 22:23:12 84° S 22:41:42 10° E visible
